CW2989 Weather Reports


time (UTC)temp
C
wind
direction
speed
KPH
gust
KPH
rain 1hr
cm
rain 24hr
cm
rain mn
cm
humidity
%
barometer
mb
20260506103313 23 40 0.0 0.0 0.00 0.00 0.00 95 991.5
20260506102314 23 40 0.0 0.0 0.00 0.00 0.00 94 991.3
20260506101318 23 41 0.0 0.0 0.00 0.00 0.00 94 991.1
20260506100245 23 41 0.0 0.0 0.00 0.00 0.00 94 991.1
20260506094127 23 40 0.0 3.2 0.00 0.00 0.00 93 990.8
20260506093117 23 40 0.0 3.2 0.00 0.00 0.00 93 990.8
20260506092053 23 39 1.6 4.8 0.00 0.00 0.00 93 990.7
20260506091110 23 39 1.6 4.8 0.00 0.00 0.00 93 990.4
20260506090116 23 37 1.6 11.3 0.00 0.00 0.00 93 990.4
20260506085054 23 42 1.6 11.3 0.00 0.00 0.00 93 990.3
20260506084025 23 30 1.6 8.0 0.00 0.00 0.00 93 990.4
20260506082958 23 30 1.6 9.7 0.00 0.00 0.00 93 990.4
20260506082006 23 48 1.6 12.9 0.00 0.00 0.00 92 990.3
20260506072817 23 84 1.6 14.5 0.00 0.00 0.00 92 990.8
20260506071800 23 20 3.2 14.5 0.00 0.00 0.00 92 990.8
20260506070821 23 38 3.2 14.5 0.00 0.00 0.00 92 990.8
20260506061816 23 65 3.2 17.7 0.00 0.00 0.00 92 990.4
20260506060822 23 59 3.2 17.7 0.00 0.00 0.00 92 990.3
20260506050614 23 32 3.2 16.1 0.00 0.00 0.00 92 990.8
20260506044624 23 40 3.2 12.9 0.00 0.00 0.00 92 990.4
20260506043607 23 40 1.6 14.5 0.00 0.00 0.00 91 990.7
20260506041450 23 34 1.6 9.7 0.00 0.00 0.00 90 990.3
20260506040447 24 29 3.2 8.0 0.00 0.00 0.00 90 990.3
20260506035424 24 37 1.6 8.0 0.00 0.00 0.00 90 990.3
20260506032142 24 35 1.6 6.4 0.00 0.00 0.00 89 990.0
20260506031158 24 44 1.6 4.8 0.00 0.00 0.00 88 989.8
20260506030204 24 36 0.0 3.2 0.00 0.00 0.00 88 989.8
20260506024007 25 37 0.0 0.0 0.00 0.00 0.00 86 989.2
20260506023005 25 38 0.0 1.6 0.00 0.00 0.00 86 989.2
20260506021933 25 38 0.0 3.2 0.00 0.00 0.00 85 989.0
20260506015730 25 36 0.0 3.2 0.00 0.00 0.00 84 988.7
20260506014706 25 37 1.6 9.7 0.00 0.00 0.00 83 988.7
20260506013704 25 31 1.6 9.7 0.00 0.00 0.00 83 988.4
20260506012708 26 27 1.6 8.0 0.00 0.00 0.00 82 988.5
20260506011716 26 26 1.6 6.4 0.00 0.00 0.00 81 988.5
20260506010741 26 27 1.6 9.7 0.00 0.00 0.00 81 988.3
20260506005752 26 34 1.6 9.7 0.00 0.00 0.00 80 988.3
20260506004753 26 34 3.2 8.0 0.00 0.00 0.00 79 988.3
20260506003723 27 17 3.2 8.0 0.00 0.00 0.00 79 988.5
20260506002741 27 51 3.2 9.7 0.00 0.00 0.00 78 988.5
20260506001731 27 22 3.2 14.5 0.00 0.00 0.00 78 988.5
20260506000709 27 47 3.2 14.5 0.00 0.00 0.00 79 988.4
20260505235715 27 30 3.2 9.7 0.00 0.00 0.00 78 988.5
20260505234648 27 46 3.2 12.9 0.00 0.00 0.00 77 988.5
20260505233640 27 28 3.2 12.9 0.00 0.00 0.00 77 988.2
20260505232618 27 39 3.2 16.1 0.00 0.00 0.00 77 988.1
20260505231609 27 41 4.8 16.1 0.00 0.00 0.00 76 988.1
20260505230625 28 30 3.2 14.5 0.00 0.00 0.00 76 988.0
20260505224507 28 27 3.2 12.9 0.00 0.00 0.00 75 987.8
20260505222259 28 65 3.2 16.1 0.00 0.00 0.00 75 987.8
20260505214928 29 40 3.2 14.5 0.00 0.00 0.00 73 988.2
20260505213857 29 43 3.2 16.1 0.00 0.00 0.00 74 988.1
20260505212922 29 23 4.8 16.1 0.00 0.00 0.00 72 988.1
20260505211915 30 42 3.2 14.5 0.00 0.00 0.00 71 988.3
20260505210940 30 26 3.2 12.9 0.00 0.00 0.00 73 988.7
20260505205949 30 55 1.6 8.0 0.00 0.00 0.00 72 988.7
20260505204947 29 53 1.6 11.3 0.00 0.00 0.00 73 988.7
20260505203920 29 83 3.2 14.5 0.00 0.00 0.00 73 988.7
20260505201708 28 34 3.2 16.1 0.00 0.00 0.00 73 989.2
20260505200714 28 17 4.8 16.1 0.00 0.00 0.00 74 989.3
20260505195703 28 30 4.8 17.7 0.00 0.00 0.00 76 989.3
20260505194726 28 46 4.8 17.7 0.00 0.00 0.00 74 989.3
20260505191336 28 53 1.6 12.9 0.00 0.00 0.00 75 989.9
20260505185125 27 49 1.6 11.3 0.00 0.00 0.00 78 990.2
20260505184113 27 114 3.2 12.9 0.00 0.00 0.00 79 990.4
20260505183136 27 67 1.6 25.7 0.00 0.00 0.00 79 990.4
20260505180936 26 49 1.6 6.4 0.00 0.00 0.00 80 990.8
20260505175953 26 53 1.6 12.9 0.00 0.00 0.00 81 990.8
20260505174959 25 70 1.6 12.9 0.00 0.00 0.00 81 990.9
20260505174013 25 49 1.6 6.4 0.00 0.00 0.00 83 991.1
20260505172959 24 84 0.0 3.2 0.00 0.00 0.00 85 991.1
20260505171946 24 78 0.0 4.8 0.00 0.00 0.00 85 991.2
20260505170958 23 61 0.0 9.7 0.00 0.00 0.00 86 991.2
20260505165927 23 46 0.0 9.7 0.00 0.00 0.00 87 991.2
20260505164939 23 99 0.0 8.0 0.00 0.00 0.00 88 991.3
20260505163935 23 96 0.0 4.8 0.00 0.00 0.00 88 991.3
20260505162929 22 106 0.0 4.8 0.00 0.00 0.00 88 991.3
20260505161934 22 107 0.0 3.2 0.00 0.00 0.00 89 991.3
20260505152822 22 76 0.0 4.8 0.00 0.00 0.00 90 991.1
20260505151807 22 82 0.0 4.8 0.00 0.00 0.00 90 991.1
20260505150743 22 71 0.0 4.8 0.00 0.00 0.00 91 991.1
20260505125036 21 82 0.0 20.9 0.00 0.00 0.00 91 990.0
20260505124006 21 84 1.6 20.9 0.00 0.00 0.00 91 989.9
20260505122958 21 25 0.0 14.5 0.00 0.00 0.00 92 989.9
20260505122011 21 46 1.6 14.5 0.00 0.00 0.00 92 989.4
20260505121014 21 71 1.6 8.0 0.00 0.00 0.00 92 989.4
20260505115941 21 76 0.0 4.8 0.00 0.00 0.00 92 989.4
20260505114907 21 83 1.6 9.7 0.00 0.00 0.00 92 989.0
20260505113915 21 42 3.2 9.7 0.00 0.00 0.00 91 989.3
20260505112922 21 47 1.6 9.7 0.00 0.00 0.00 91 989.3
20260505111854 21 69 1.6 9.7 0.00 0.00 0.00 91 989.3
20260505110858 21 29 1.6 14.5 0.00 0.00 0.00 91 989.3